Location: Newark
(25.6108°S, 54.5803°W)
Time: 10:14:36
(UTC+00:00)

deb Explorer IX - Pass Details

Date: 04 November 2020
Orbit: 538 x 1104 km, 38.8° (Epoch: 23 November)

Event Time Altitude Azimuth Distance (km) Brightness Sun altitude
Rises 16:42:06 0° 302° (WNW) 3,891 ? 68.8°
Reaches altitude 10° 16:44:56 10° 301° (WNW) 2,906 ? 68.2°
Maximum altitude 16:52:06 86° 213° (SSW) 1,010 ? 66.7°
Drops below altitude 10° 16:58:28 10° 122° (ESE) 2,595 ? 65.4°
Sets 17:00:53 0° 122° (ESE) 3,454 ? 64.9°
